CW5586 Weather Reports


Display with metric or nautical units.
time (UTC)temp
F
wind
direction
speed
MPH
gust
MPH
rain 1hr
in
rain 24hr
in
rain mn
in
humidity
%
barometer
mb
20260904121604 61 250 2.0 9.0 0.00 0.37 0.19 74 998.4
20260904121104 61 224 2.0 12.0 0.00 0.37 0.19 74 998.5
20260904120604 61 254 1.0 16.0 0.00 0.37 0.19 76 998.6
20260904114604 61 184 3.0 12.0 0.00 0.37 0.19 78 998.8
20260904114104 61 232 6.0 12.0 0.00 0.37 0.19 77 998.9
20260904113104 61 242 6.0 12.0 0.00 0.37 0.19 77 998.8
20260904110603 60 223 6.0 10.0 0.00 0.37 0.19 76 998.8
20260904110115 60 228 5.0 15.0 0.00 0.37 0.19 76 998.8
20260904103104 60 223 3.0 13.0 0.00 0.37 0.19 78 999.3
20260904100604 60 250 2.0 18.0 0.00 0.37 0.19 78 999.5
20260904094604 60 250 5.0 15.0 0.00 0.37 0.19 79 999.7
20260904093604 61 188 5.0 12.0 0.00 0.37 0.19 77 999.9
20260904090116 60 300 3.0 20.0 0.00 0.37 0.19 81 1000.0
20260904084604 60 216 6.0 20.0 0.00 0.37 0.19 78 1000.0
20260904084104 60 244 1.0 12.0 0.00 0.37 0.19 78 1000.1
20260904083104 60 74 2.0 20.0 0.00 0.37 0.19 78 1000.0
20260904074604 60 259 5.0 13.0 0.00 0.37 0.19 78 1000.4
20260904073103 60 196 3.0 14.0 0.00 0.37 0.19 81 1000.5
20260904071604 59 313 6.0 12.0 0.00 0.37 0.19 81 1000.5
20260904070605 59 232 6.0 12.0 0.00 0.37 0.19 83 1000.6
20260904064603 58 225 3.0 12.0 0.00 0.37 0.19 84 1000.5
20260904061603 58 226 14.0 14.0 0.00 0.37 0.19 85 1000.7
20260904061104 58 184 1.0 13.0 0.00 0.37 0.19 86 1000.7
20260904060604 58 185 3.0 8.0 0.00 0.37 0.19 86 1000.6
20260904054604 57 238 8.0 15.0 0.00 0.37 0.19 86 1000.8
20260904050605 57 221 2.0 18.0 0.00 0.37 0.19 86 1000.9
20260904044604 57 180 3.0 9.0 0.00 0.37 0.19 87 1001.2
20260904043104 57 240 9.0 14.0 0.00 0.37 0.19 88 1001.0
20260904041604 57 231 7.0 14.0 0.00 0.37 0.19 90 1001.0
20260904034104 57 243 2.0 10.0 0.00 0.37 0.19 91 1001.1
20260904033604 57 248 3.0 13.0 0.00 0.37 0.19 91 1001.2
20260904031104 56 215 2.0 8.0 0.00 0.37 0.19 91 1001.5
20260904030604 57 200 7.0 8.0 0.00 0.37 0.19 91 1001.4
20260904023104 57 209 3.0 9.0 0.00 0.37 0.19 92 1001.6
20260904021604 57 220 2.0 14.0 0.00 0.37 0.19 92 1001.7
20260904021104 57 235 6.0 14.0 0.00 0.37 0.19 92 1001.7
20260904014604 57 180 3.0 14.0 0.00 0.37 0.19 92 1001.8
20260904014104 57 238 5.0 14.0 0.00 0.37 0.19 92 1001.8
20260904013104 57 275 9.0 13.0 0.00 0.37 0.19 92 1001.9
20260904004102 57 160 6.0 13.0 0.01 0.37 0.19 94 1002.4
20260904003104 57 190 2.0 14.0 0.01 0.37 0.19 94 1002.5
20260904001103 57 217 8.0 12.0 0.01 0.36 0.18 94 1002.4
20260904000603 57 290 6.0 12.0 0.02 0.36 0.18 94 1002.3
20260903233603 57 207 5.0 16.0 0.07 0.36 0.18 95 1002.5
20260903233103 57 300 8.0 16.0 0.08 0.36 0.18 95 1002.3
20260903230604 58 195 5.0 10.0 0.16 0.35 0.17 96 1002.5
20260903221603 57 0 0.0 0.0 0.17 0.23 0.05 95 1002.9
20260903220603 58 0 0.0 1.0 0.13 0.19 0.01 95 1002.8
20260903214603 58 0 0.0 2.0 0.00 0.13 0.06 95 1003.0
20260903214102 58 0 0.0 2.0 0.00 0.13 0.06 95 1003.0
20260903213604 58 66 1.0 2.0 0.00 0.13 0.06 95 1003.0
20260903213103 58 0 0.0 2.0 0.00 0.13 0.06 95 1003.1
20260903211603 58 119 0.0 2.0 0.00 0.13 0.06 95 1003.2
20260903210114 58 118 1.0 2.0 0.00 0.13 0.06 95 1003.4
20260903204603 58 0 0.0 1.0 0.00 0.13 0.06 95 1003.7
20260903204103 58 0 0.0 1.0 0.00 0.13 0.06 95 1003.7
20260903203103 57 0 0.0 0.0 0.00 0.13 0.06 95 1003.8
20260903201603 57 0 0.0 0.0 0.00 0.13 0.06 95 1003.8
20260903200603 58 0 0.0 2.0 0.00 0.13 0.06 95 1003.7
20260903200114 58 0 0.0 2.0 0.00 0.13 0.06 95 1003.7
20260903191604 57 0 0.0 2.0 0.00 0.13 0.06 95 1004.3
20260903184603 57 42 1.0 2.0 0.01 0.13 0.06 94 1004.3
20260903184103 57 33 1.0 2.0 0.01 0.13 0.06 94 1004.4
20260903183603 57 45 1.0 3.0 0.01 0.13 0.06 94 1004.3
20260903181103 58 54 2.0 2.0 0.01 0.13 0.06 94 1004.5
20260903180602 58 46 1.0 2.0 0.01 0.13 0.06 94 1004.5
20260903180114 58 38 2.0 2.0 0.00 0.12 0.05 94 1004.5
20260903174603 58 61 1.0 2.0 0.00 0.12 0.05 93 1004.6
20260903174103 58 32 1.0 2.0 0.00 0.12 0.05 93 1004.6
20260903173603 58 30 1.0 3.0 0.00 0.12 0.05 93 1004.7
20260903173103 58 28 2.0 3.0 0.00 0.12 0.05 93 1004.5
20260903171603 58 39 1.0 2.0 0.00 0.12 0.05 93 1004.5
20260903170603 59 68 0.0 2.0 0.00 0.12 0.05 93 1004.6
20260903170115 59 72 1.0 2.0 0.00 0.12 0.05 93 1004.8
20260903164603 59 71 1.0 2.0 0.01 0.12 0.05 92 1004.9
20260903161603 59 110 1.0 2.0 0.05 0.12 0.05 92 1005.0
20260903161103 59 0 0.0 2.0 0.05 0.12 0.05 92 1005.1
20260903160115 59 0 0.0 2.0 0.05 0.12 0.05 91 1005.2
20260903154103 59 107 1.0 2.0 0.03 0.10 0.03 90 1005.4
20260903153603 59 123 1.0 2.0 0.02 0.09 0.02 90 1005.4
20260903153103 60 149 1.0 2.0 0.02 0.09 0.02 90 1005.5
20260903150115 60 139 2.0 2.0 0.00 0.07 0.00 87 1005.8
20260903144603 61 0 0.0 6.0 0.00 0.07 0.00 85 1006.0
20260903144104 61 151 1.0 6.0 0.00 0.07 0.00 84 1006.1
20260903143103 61 172 1.0 8.0 0.00 0.07 0.00 82 1006.2
20260903140603 61 169 5.0 6.0 0.00 0.07 0.00 81 1006.5
20260903134103 61 138 6.0 5.0 0.00 0.07 0.00 80 1006.7
20260903133103 61 216 3.0 6.0 0.00 0.07 0.00 79 1006.8
20260903131603 62 221 2.0 6.0 0.00 0.07 0.00 78 1006.9
20260903131103 62 208 5.0 6.0 0.00 0.07 0.00 78 1006.9
20260903130603 62 254 3.0 8.0 0.00 0.07 0.00 78 1007.0
20260903124603 61 229 1.0 7.0 0.00 0.07 0.00 78 1007.0